sat.trackr.live / text

‹ back to catalog

STARLINK-37374

NORAD 69153 · 2026-111F

PAYLOAD ACTIVE UNKNOWN

§ Identity

Operator
Country
US
Launch date
2026-05-21
Launch site
AFETR
Launch vehicle
Mass (kg)
RCS (m²)

Purposes: comms

External: N2YO · Heavens-Above · Gunter

§ Orbital elements

Epoch: 2026-09-20T00:45:47.611584Z

Period
93.85 min
Inclination
53.1520°
Eccentricity
0.0002358
Mean motion
15.34414060 rev/d
Perigee alt
461.0 km
Apogee alt
464.3 km
Semi-major
6,840.8 km
B*
6.2028e-4
RAAN
68.1673°
Arg perigee
163.0379°
Mean anomaly
197.0703°
Rev number
1,882

§ Raw data

STARLINK-373741 69153U 26111F   26263.03180106  .00020649  00000+0  62028-3 0  99942 69153  53.1520  68.1673 0002358 163.0379 197.0703 15.34414060 18824

JSON: /api/v1/satellites/69153 · /tle

For live sub-satellite position, see the globe view (requires WebGL).

§ Visibility from observer

Set your observer location to see the next 7 days of passes ≥ 10°. The values pass through the URL so the page stays shareable.

No JS? Fill the form by hand. The geolocation button needs JavaScript.